Location: Napier
(39.4830°S, 176.9170°E)
Time: 02:56:40
(UTC+12:00)

BREEZE-M R/B - Pass Details

Date: 15 August 2020
Orbit: 312 x 4529 km, 49.7° (Epoch: 19 September)

Event Time Altitude Azimuth Distance (km) Brightness Sun altitude
Rises 17:54:25 0° 333° (NNW) 4,229 8.0 -4.6°
Reaches altitude 10° 17:58:33 10° 344° (NNW) 2,596 6.7 -5.3°
Maximum altitude 18:02:53 23° 36° (NE) 1,293 4.5 -6.1°
Drops below altitude 10° 18:05:40 10° 91° (E) 1,600 4.5 -6.7°
Enters shadow 18:05:58 - 94° (E) 1,690 4.6 -6.7°
